User: anonymous   Login
Location: Unnamed
(48.6007°N, 2.4808°E)
Time: 13:19:27
(UTC+01:00)
Language:

METEOR 2-8 DEB - Orbit

View from above orbital plane
View from above orbital plane
View from above satellite
View from above satellite

Ground track
Ground track

The orbit data is extracted from the following two-line orbital elements,

1 36350U 82025AL  23337.45702876  .00004897  00000-0  22553-2 0  9998
2 36350  82.5187 237.3755 0013393 259.4818 100.4854 14.20885837539890
Epoch (UTC): 03 December 2023 10:58:07
Eccentricity: 0.0013393
inclination: 82.5187°
perigee height: 813 km
apogee height: 832 km
right ascension of ascending node: 237.3755°
argument of perigee: 259.4818°
revolutions per day: 14.20885837
mean anomaly at epoch: 100.4854°
orbit number at epoch: 53989

The dashed part of the orbit path shows where the satellite is in the earth's shadow,  

DLR